CW3590 Weather Reports


Display with metric or nautical units.
time (UTC)temp
F
wind
direction
speed
MPH
gust
MPH
rain 1hr
in
rain 24hr
in
rain mn
in
humidity
%
barometer
mb
20210926074004 62 0 0.0 0.0 0.00 0.00 0.00 85 1016.5
20210926073005 62 0 0.0 0.0 0.00 0.00 0.00 85 1016.6
20210926072004 62 0 0.0 0.0 0.00 0.00 0.00 85 1016.6
20210926071004 62 0 0.0 0.0 0.00 0.00 0.00 86 1016.6
20210926070004 62 0 0.0 0.0 0.00 0.00 0.00 85 1016.5
20210926065004 63 0 0.0 0.0 0.00 0.00 0.00 84 1016.4
20210926064004 63 0 0.0 0.0 0.00 0.00 0.00 85 1016.5
20210926063004 63 0 0.0 0.0 0.00 0.00 0.00 85 1016.4
20210926062005 63 0 0.0 0.0 0.00 0.00 0.00 84 1016.5
20210926061004 64 0 0.0 0.0 0.00 0.00 0.00 84 1016.5
20210926060015 63 0 0.0 0.0 0.00 0.00 0.00 85 1016.6
20210926055015 63 0 0.0 0.0 0.00 0.00 0.00 85 1016.6
20210926054014 63 0 0.0 0.0 0.00 0.00 0.00 84 1016.7
20210926053015 64 0 0.0 1.0 0.00 0.00 0.00 83 1016.7
20210926052014 64 0 0.0 0.0 0.00 0.00 0.00 84 1016.7
20210926051014 64 0 0.0 0.0 0.00 0.00 0.00 83 1016.8
20210926050024 64 0 0.0 0.0 0.00 0.00 0.00 83 1016.8
20210926045014 65 0 0.0 0.0 0.00 0.00 0.00 82 1016.9
20210926044015 65 0 0.0 0.0 0.00 0.00 0.00 82 1016.9
20210926043014 66 0 0.0 0.0 0.00 0.00 0.00 81 1017.0
20210926042014 66 0 0.0 0.0 0.00 0.00 0.00 80 1017.0
20210926041015 66 0 0.0 0.0 0.00 0.00 0.00 81 1017.1
20210926040014 66 0 0.0 0.0 0.00 0.00 0.00 80 1017.0
20210926035015 67 0 0.0 0.0 0.00 0.00 0.00 80 1017.1
20210926034014 67 0 0.0 0.0 0.00 0.00 0.00 81 1017.2
20210926033014 67 0 0.0 0.0 0.00 0.00 0.00 81 1017.1
20210926032014 66 0 0.0 0.0 0.00 0.00 0.00 81 1017.0
20210926031014 67 0 0.0 0.0 0.00 0.00 0.00 80 1017.1
20210926030015 68 0 0.0 0.0 0.00 0.00 0.00 78 1017.0
20210926025014 67 0 0.0 0.0 0.00 0.00 0.00 80 1017.0
20210926024015 68 0 0.0 0.0 0.00 0.00 0.00 80 1017.1
20210926023015 68 0 0.0 0.0 0.00 0.00 0.00 78 1017.0
20210926022015 68 0 0.0 0.0 0.00 0.00 0.00 78 1017.0
20210926021014 68 0 0.0 0.0 0.00 0.00 0.00 78 1017.0
20210926020015 68 0 0.0 0.0 0.00 0.00 0.00 77 1016.7
20210926015015 69 0 0.0 0.0 0.00 0.00 0.00 75 1016.6
20210926014015 70 0 0.0 0.0 0.00 0.00 0.00 75 1016.7
20210926013014 69 0 0.0 0.0 0.00 0.00 0.00 75 1016.6
20210926012014 71 0 0.0 0.0 0.00 0.00 0.00 72 1016.5
20210926011014 71 0 0.0 0.0 0.00 0.00 0.00 71 1016.4
20210926010014 71 0 0.0 0.0 0.00 0.00 0.00 71 1016.4
20210926005015 72 0 0.0 0.0 0.00 0.00 0.00 68 1016.3
20210926004014 73 0 0.0 0.0 0.00 0.00 0.00 67 1016.3
20210926003014 74 0 0.0 0.0 0.00 0.00 0.00 65 1016.3
20210926002013 75 0 0.0 0.0 0.00 0.00 0.00 64 1016.3
20210926001014 76 0 0.0 0.0 0.00 0.00 0.00 62 1016.2
20210926000014 77 0 0.0 0.0 0.00 0.00 0.00 60 1016.3
20210925235014 78 0 0.0 0.0 0.00 0.00 0.00 56 1016.3
20210925234015 79 0 0.0 0.0 0.00 0.00 0.00 55 1016.4
20210925233014 80 0 0.0 0.0 0.00 0.00 0.00 52 1016.3
20210925232014 80 0 0.0 0.0 0.00 0.00 0.00 50 1016.2
20210925231014 81 63 0.0 1.0 0.00 0.00 0.00 51 1016.1
20210925230014 81 60 0.0 2.0 0.00 0.00 0.00 50 1016.2
20210925225014 82 111 1.0 2.0 0.00 0.00 0.00 49 1016.3
20210925224014 83 110 1.0 3.0 0.00 0.00 0.00 44 1016.3
20210925223014 83 40 1.0 3.0 0.00 0.00 0.00 45 1016.4
20210925222014 84 348 1.0 3.0 0.00 0.00 0.00 45 1016.3
20210925221014 84 330 0.0 3.0 0.00 0.00 0.00 43 1016.3
20210925220013 84 50 1.0 2.0 0.00 0.00 0.00 42 1016.3
20210925215014 84 97 1.0 5.0 0.00 0.00 0.00 42 1016.4
20210925214014 85 184 1.0 3.0 0.00 0.00 0.00 41 1016.4
20210925213014 84 114 1.0 5.0 0.00 0.00 0.00 43 1016.5
20210925212014 85 71 2.0 3.0 0.00 0.00 0.00 44 1016.5
20210925211014 85 64 2.0 4.0 0.00 0.00 0.00 41 1016.6
20210925210014 85 59 2.0 5.0 0.00 0.00 0.00 42 1016.6
20210925205014 84 53 1.0 5.0 0.00 0.00 0.00 43 1016.8
20210925204014 84 56 2.0 5.0 0.00 0.00 0.00 44 1016.8
20210925203014 85 47 2.0 7.0 0.00 0.00 0.00 43 1016.8
20210925202013 84 74 1.0 8.0 0.00 0.00 0.00 42 1017.0
20210925201014 84 107 1.0 3.0 0.00 0.00 0.00 43 1017.1
20210925200013 84 21 1.0 4.0 0.00 0.00 0.00 47 1017.3
20210925195014 83 94 2.0 5.0 0.00 0.00 0.00 44 1017.3
20210925194014 83 49 2.0 6.0 0.00 0.00 0.00 44 1017.4
20210925193014 84 43 1.0 6.0 0.00 0.00 0.00 46 1017.7
20210925192013 83 133 2.0 3.0 0.00 0.00 0.00 47 1017.8
20210925191013 82 36 2.0 6.0 0.00 0.00 0.00 45 1018.0
20210925190013 82 322 2.0 8.0 0.00 0.00 0.00 45 1018.1
20210925185014 82 23 2.0 10.0 0.00 0.00 0.00 46 1018.2
20210925184013 82 325 1.0 5.0 0.00 0.00 0.00 51 1018.4
20210925183014 81 29 2.0 5.0 0.00 0.00 0.00 49 1018.6
20210925182013 81 292 2.0 4.0 0.00 0.00 0.00 48 1018.8
20210925181013 81 346 1.0 3.0 0.00 0.00 0.00 50 1018.9
20210925180014 80 290 2.0 6.0 0.00 0.00 0.00 52 1019.0
20210925175013 80 311 2.0 5.0 0.00 0.00 0.00 54 1019.1
20210925174014 80 268 2.0 8.0 0.00 0.00 0.00 54 1019.3
20210925173014 78 255 3.0 7.0 0.00 0.00 0.00 58 1019.3
20210925172014 78 263 3.0 6.0 0.00 0.00 0.00 57 1019.4
20210925171013 78 259 2.0 5.0 0.00 0.00 0.00 57 1019.5
20210925170014 77 256 3.0 7.0 0.00 0.00 0.00 57 1019.6
20210925165013 77 281 2.0 6.0 0.00 0.00 0.00 61 1019.7
20210925164013 77 256 2.0 9.0 0.00 0.00 0.00 63 1019.8
20210925163014 76 298 3.0 6.0 0.00 0.00 0.00 65 1019.8
20210925162013 76 272 2.0 9.0 0.00 0.00 0.00 65 1019.8
20210925161013 75 265 3.0 8.0 0.00 0.00 0.00 66 1019.9
20210925160014 75 252 3.0 12.0 0.00 0.00 0.00 66 1020.0
20210925155013 74 259 4.0 7.0 0.00 0.00 0.00 68 1020.0
20210925154015 73 253 3.0 10.0 0.00 0.00 0.00 69 1020.0
20210925153013 73 255 3.0 8.0 0.00 0.00 0.00 70 1019.9
20210925152014 72 269 3.0 9.0 0.00 0.00 0.00 72 1020.0
20210925151013 71 257 2.0 6.0 0.00 0.00 0.00 71 1020.0
20210925150014 70 255 2.0 5.0 0.00 0.00 0.00 72 1020.0
20210925145013 69 253 3.0 8.0 0.00 0.00 0.00 72 1019.8
20210925144013 69 263 3.0 8.0 0.00 0.00 0.00 73 1019.9
20210925143015 68 253 1.0 7.0 0.00 0.00 0.00 72 1019.8
20210925142014 68 257 1.0 4.0 0.00 0.00 0.00 74 1019.8
20210925141013 67 207 1.0 2.0 0.00 0.00 0.00 75 1019.6
20210925140014 66 205 1.0 3.0 0.00 0.00 0.00 77 1019.5
20210925135013 64 140 0.0 1.0 0.00 0.00 0.00 81 1019.4
20210925134014 62 0 0.0 2.0 0.00 0.00 0.00 87 1019.4
20210925133013 60 0 0.0 1.0 0.00 0.00 0.00 89 1019.4
20210925132014 59 0 0.0 0.0 0.00 0.00 0.00 90 1019.3
20210925131013 58 0 0.0 1.0 0.00 0.00 0.00 90 1019.3
20210925130013 57 0 0.0 0.0 0.00 0.00 0.00 90 1019.1
20210925125013 56 0 0.0 1.0 0.00 0.00 0.00 90 1019.0
20210925124014 56 0 0.0 2.0 0.00 0.00 0.00 90 1018.8
20210925123013 56 0 0.0 0.0 0.00 0.00 0.00 90 1018.7
20210925122013 56 0 0.0 0.0 0.00 0.00 0.00 90 1018.6
20210925121014 56 0 0.0 0.0 0.00 0.00 0.00 90 1018.6
20210925120013 56 0 0.0 0.0 0.00 0.00 0.00 89 1018.4
20210925115013 56 0 0.0 0.0 0.00 0.00 0.00 88 1018.2
20210925114014 57 0 0.0 1.0 0.00 0.00 0.00 88 1018.2
20210925113014 57 0 0.0 1.0 0.00 0.00 0.00 88 1018.2
20210925112013 57 0 0.0 1.0 0.00 0.00 0.00 89 1018.0
20210925111013 57 0 0.0 1.0 0.00 0.00 0.00 89 1018.0
20210925110013 57 0 0.0 2.0 0.00 0.00 0.00 89 1017.9
20210925105013 56 0 0.0 0.0 0.00 0.00 0.00 89 1017.8
20210925104013 57 0 0.0 0.0 0.00 0.00 0.00 89 1017.6
20210925103013 57 0 0.0 1.0 0.00 0.00 0.00 89 1017.4
20210925102013 57 0 0.0 1.0 0.00 0.00 0.00 87 1017.4
20210925101013 58 0 0.0 0.0 0.00 0.00 0.00 88 1017.3
20210925100013 58 0 0.0 0.0 0.00 0.00 0.00 88 1017.3
20210925095013 58 0 0.0 0.0 0.00 0.00 0.00 88 1017.2
20210925094013 58 0 0.0 0.0 0.00 0.00 0.00 88 1017.1
20210925093013 58 0 0.0 0.0 0.00 0.00 0.00 88 1017.1
20210925092013 58 0 0.0 0.0 0.00 0.00 0.00 88 1017.1
20210925091013 58 0 0.0 0.0 0.00 0.00 0.00 88 1017.0
20210925090013 58 0 0.0 0.0 0.00 0.00 0.00 87 1017.0
20210925085013 59 0 0.0 0.0 0.00 0.00 0.00 87 1017.0
20210925084013 59 0 0.0 0.0 0.00 0.00 0.00 87 1017.0
20210925083013 59 0 0.0 0.0 0.00 0.00 0.00 86 1017.1
20210925082013 59 0 0.0 0.0 0.00 0.00 0.00 87 1017.1
20210925081013 59 0 0.0 0.0 0.00 0.00 0.00 86 1017.1
20210925080014 60 0 0.0 0.0 0.00 0.00 0.00 84 1017.1
20210925075013 60 0 0.0 0.0 0.00 0.00 0.00 85 1017.1